Location: Dover
(39.1580°N, 75.5250°W)
Time: 08:21:59
(UTC-04:00)

SeaSat 1 - Visible Passes

Search period start: 02 August 2015 00:00
Search period end: 12 August 2015 00:00
Orbit: 746 x 749 km, 108.0° (Epoch: 02 August)

Date Brightness Start Highest point End Pass type
(mag) Time Alt. Az. Time Alt. Az. Time Alt. Az.
02 Aug 4.4 00:46:56 21° WNW 00:46:56 21° WNW 00:49:05 10° NW visible
02 Aug 4.5 22:24:26 13° ENE 22:25:51 15° NE 22:28:39 10° NNE visible
03 Aug 3.3 00:04:15 48° NW 00:04:15 48° NW 00:07:49 10° NNW visible
03 Aug 3.4 23:21:33 38° NE 23:21:33 38° NE 23:25:46 10° N visible
04 Aug 4.6 01:01:22 18° WNW 01:01:22 18° WNW 01:02:57 10° NW visible
04 Aug 4.4 22:38:51 16° ENE 22:39:47 16° NE 22:42:53 10° N visible
05 Aug 3.6 00:18:40 39° NW 00:18:40 39° NW 00:21:48 10° NNW visible
05 Aug 3.5 23:35:58 39° NNE 23:35:58 39° NNE 23:39:50 10° NNW visible
06 Aug 4.8 01:15:46 14° WNW 01:15:46 14° WNW 01:16:47 10° NW visible
06 Aug 4.3 22:53:16 18° ENE 22:53:43 18° NE 22:57:04 10° N visible
07 Aug 3.9 00:33:04 32° NW 00:33:04 32° NW 00:35:47 10° NNW visible
07 Aug 3.6 23:50:22 38° NNE 23:50:22 38° NNE 23:53:53 10° NNW visible
08 Aug 5.0 01:30:11 12° WNW 01:30:11 12° WNW 01:30:36 10° WNW visible
08 Aug 4.3 23:07:40 20° NE 23:07:40 20° NE 23:11:14 10° N visible
09 Aug 4.2 00:47:28 27° NW 00:47:28 27° NW 00:49:44 10° NNW visible
10 Aug 3.8 00:04:46 36° N 00:04:46 36° N 00:07:55 10° NNW visible
10 Aug 4.3 23:22:03 21° NE 23:22:03 21° NE 23:25:22 10° N visible
11 Aug 4.5 01:01:51 22° NW 01:01:51 22° NW 01:03:41 10° NW visible
